一网星座-0287星 (ONEWEB-0287 )

导读

ONEWEB-0287是英国一网公司(OneWeb)低轨卫星互联网星座的成员,于2021年8月21日发射。OneWeb计划部署近600颗低轨小卫星,构建覆盖全球的高速低延时卫星通信网络,可为偏远地区、灾害场景提供稳定连接。ONEWEB-0287的入轨,助力OneWeb完成星座组网,推动全球无缝互联的卫星互联网服务落地。

Basic Information
目录编号:
49077
目录名称:
ONEWEB-0287
国际标识:
2021-075C
轨道中心:
EARTH
卫星名称:
一网星座-0287星
卫星全名:
一网星座-0287星 (ONEWEB-0287 )
卫星状态:
在轨 (已飞行1847 天)
发射日期:
2021-08-21 UTC
国别 :
英国 (GB)
星等 :
--
This satellite is enrolled in the Space Conjunction Data Service (SCDS) and the current flight risk assessment level is: No High Risk
Orbit Information
数据来源 国际轨道数据 AOE轨道数据
星历时间 2026-09-11T14:40:43+0800
8小时前
查看轨道信息
2026-09-07T02:00:00+0800
4天前
查看轨道信息
半长轴 7571.849km 7571.855km
偏心率 0.0001889 0.0001881
轨道倾角 87.921° 87.922°
近地点辐角 113.326° 115.889°
升交点赤经 348.767° 349.663°
平近点角 246.808° 16.465°
近地点 1192.281km 1192.293km
远地点 1195.143km 1195.143km
周期 109.286分钟 109.286分钟
每日圈数 13.176494 13.17648
Detailed Information
平衡模式:
三轴稳定
覆盖范围:
全球
运营商:
一网卫星公司
运营商所在国:
英国
制造商(研发单位):
一网卫星公司
制造商所在国:
英国
使用方式:
暂无
Satellite Introduction
OneWeb卫星网络由648颗重约125公斤的微型卫星组成,运行在1200公里的轨道上。 每颗卫星都能够提供至少每秒8千兆位的吞吐量,以使用其高吞吐量的Ku频段有效载荷为家庭和移动平台提供互联网接入。该卫星仍在工作。
2D Orbit Map
3D Orbit Map
Orbit Altitude Analysis Chart
Orbit Inclination Analysis Chart
Orbit Comprehensive Analysis Chart
View Comprehensive Chart
Miss Distance Evolution Trend with All Objects
Collision Probability Evolution Trend with All Objects